This demonstration page uses our WeatherBlox Daily Observations layout. Learn more.

Left ArrowRight Arrow

39.51506, -84.39828

Hourly Observations for April 14, 2016

Temp ( °F °C ) Dew Point ( °F °C ) Humidity (%) Winds ( mph kmh ) Pressure ( in mb ) Visibility ( mi km ) Precip ( " mm )
12:15 am 00:15 Clear 47 8.2 32 0.2 57 57 NNE 7 11 30.24 1024 10 16 N/A
12:35 am 00:35 Clear 44 6.8 32 undefined 62 62 NNE 7 11 30.24 1024 10 16 N/A
12:55 am 00:55 Clear 44 6.5 32 undefined 64 64 NNE 5 7 30.24 1024 10 16 N/A
1:15 am 01:15 Clear 43 6.3 32 undefined 64 64 NNE 6 9 30.24 1024 10 16 N/A
1:35 am 01:35 Clear 43 6.1 32 undefined 65 65 NNE 7 11 30.24 1024 10 16 N/A
1:55 am 01:55 Clear 43 6 32 undefined 66 66 NNE 7 11 30.24 1024 10 16 N/A
2:15 am 02:15 Clear 42 5.5 32 undefined 68 68 NNE 5 7 30.27 1025 10 16 N/A
2:35 am 02:35 Clear 42 5.5 32 undefined 68 68 NNE 5 7 30.27 1025 10 16 N/A
2:55 am 02:55 Clear 40 4.7 32 undefined 72 72 N 3 6 30.27 1025 10 16 N/A
3:15 am 03:15 Clear 39 4 32 undefined 75 75 N 6 9 30.27 1025 10 16 N/A
3:35 am 03:35 Clear 39 4 31 -0.3 74 74 N 5 7 30.27 1025 10 16 N/A
3:55 am 03:55 Clear 39 4 31 -0.4 73 73 NNE 5 7 30.27 1025 10 16 N/A
4:15 am 04:15 Clear 39 4 31 -0.5 73 73 N 6 9 30.27 1025 10 16 N/A
4:35 am 04:35 Clear 39 4 31 -0.3 74 74 N 5 7 30.27 1025 10 16 N/A
4:55 am 04:55 Clear 39 4 31 -0.4 73 73 NNE 5 7 30.27 1025 10 16 N/A
5:15 am 05:15 Clear 39 4 31 -0.5 73 73 NNE 7 11 30.27 1025 10 16 N/A
5:35 am 05:35 Clear 39 4 31 -0.7 72 72 NNE 5 7 30.27 1025 10 16 N/A
5:55 am 05:55 Clear 39 4 31 -0.5 73 73 N 6 9 30.27 1025 10 16 N/A
6:15 am 06:15 Clear 37 2.6 30 -1.2 76 76 N 5 7 30.30 1026 10 16 N/A
6:35 am 06:35 Clear 37 2.6 30 -1 77 77 N 6 9 30.30 1026 10 16 N/A
6:55 am 06:55 Clear 37 2.6 31 -0.8 79 79 NNE 3 6 30.30 1026 10 16 N/A
7:15 am 07:15 Sunny 37 2.6 30 -1.1 77 77 N 5 7 30.30 1026 10 16 N/A
7:35 am 07:35 Sunny 37 2.6 30 -1 77 77 N 5 7 30.30 1026 10 16 N/A
7:55 am 07:55 Sunny 39 4 32 -0.1 75 75 N 3 6 30.30 1026 10 16 N/A
8:15 am 08:15 Sunny 40 4.6 32 -0.2 71 71 NNE 3 6 30.30 1026 10 16 N/A
8:35 am 08:35 Sunny 42 5.8 31 -0.7 63 63 NE 5 7 30.30 1026 10 16 N/A
8:55 am 08:55 Sunny 44 6.7 30 -0.9 59 59 NE 7 11 30.27 1025 10 16 N/A
9:15 am 09:15 Sunny 48 9.1 32 0.2 54 54 NE 7 11 30.27 1025 10 16 N/A
9:35 am 09:35 Sunny 49 9.6 32 undefined 52 52 NE 8 13 30.27 1025 10 16 N/A
9:55 am 09:55 Sunny 51 10.7 31 -0.8 45 45 NE 9 15 30.27 1025 10 16 N/A
10:15 am 10:15 Sunny 55 12.5 31 -0.8 40 40 NE 9 15 30.27 1025 10 16 N/A
10:35 am 10:35 Sunny 55 12.5 28 -2.3 36 36 NE 10 17 30.27 1025 10 16 N/A
10:55 am 10:55 Sunny 56 13.5 28 -2.1 34 34 ENE 9 15 30.27 1025 10 16 N/A
11:15 am 11:15 Sunny 57 13.8 27 -2.8 32 32 NE 10 17 30.27 1025 10 16 N/A
11:35 am 11:35 Sunny 59 15.1 26 -3.3 28 28 ENE 12 19 30.27 1025 10 16 N/A
11:55 am 11:55 Sunny 60 15.3 25 -3.9 27 27 ENE 10 17 30.27 1025 10 16 N/A
12:15 pm 12:15 Sunny 60 15.8 24 -4.6 24 24 NE 9 15 30.27 1025 10 16 N/A
12:35 pm 12:35 Sunny 61 16 21 -5.9 22 22 E 12 19 30.27 1025 10 16 N/A
12:55 pm 12:55 Sunny 62 16.6 23 -5.2 22 22 NE 13 20 30.27 1025 10 16 N/A
1:15 pm 13:15 Sunny 62 16.7 18 -7.6 18 18 E 6 9 30.27 1025 10 16 N/A
1:35 pm 13:35 Sunny 63 17.2 20 -6.7 19 19 ENE 7 11 30.24 1024 10 16 N/A
1:55 pm 13:55 Sunny 64 18 18 -7.7 17 17 E 9 15 30.21 1023 10 16 N/A
2:15 pm 14:15 Sunny 65 18.3 13 -10.6 13 13 E 7 11 30.21 1023 10 16 N/A
2:35 pm 14:35 Sunny 67 19.5 16 -8.7 14 14 E 13 20 30.21 1023 10 16 N/A
2:55 pm 14:55 Sunny 68 19.8 17 -8.1 14 14 ENE 12 19 30.21 1023 10 16 N/A
3:15 pm 15:15 Sunny 68 20.2 17 -8.4 14 14 E 12 19 30.18 1022 10 16 N/A
3:35 pm 15:35 Sunny 69 20.8 18 -7.6 14 14 E 12 19 30.18 1022 10 16 N/A
3:55 pm 15:55 Sunny 69 20.8 19 -7.1 15 15 E 9 15 30.18 1022 10 16 N/A
4:15 pm 16:15 Sunny 69 20.8 19 -7.1 15 15 E 10 17 30.18 1022 10 16 N/A
4:35 pm 16:35 Sunny 69 20.8 21 -6 16 16 NE 10 17 30.15 1021 10 16 N/A
4:55 pm 16:55 Sunny 69 20.8 23 -5.2 17 17 NE 9 15 30.15 1021 10 16 N/A
5:15 pm 17:15 Sunny 69 20.8 23 -5.2 17 17 NE 7 11 30.15 1021 10 16 N/A
5:35 pm 17:35 Sunny 69 20.8 23 -5.1 17 17 E 6 9 30.15 1021 10 16 N/A
5:55 pm 17:55 Sunny 69 20.8 23 -5.1 17 17 ENE 10 17 30.15 1021 10 16 N/A
6:15 pm 18:15 Sunny 69 20.8 23 -5.2 17 17 E 9 15 30.15 1021 10 16 N/A
6:35 pm 18:35 Sunny 69 20.8 23 -4.8 17 17 E 10 17 30.15 1021 10 16 N/A
6:55 pm 18:55 Sunny 69 20.8 25 -4 19 19 E 8 13 30.15 1021 10 16 N/A
7:15 pm 19:15 Sunny 69 20.8 25 -4 19 19 E 9 15 30.15 1021 10 16 N/A
7:35 pm 19:35 Sunny 67 19.2 25 -3.7 21 21 ENE 7 11 30.15 1021 10 16 N/A
7:55 pm 19:55 Sunny 62 16.6 27 -2.6 27 27 E 7 11 30.18 1022 10 16 N/A
8:15 pm 20:15 Clear 60 15.8 27 -2.9 28 28 ENE 7 11 30.18 1022 10 16 N/A
8:35 pm 20:35 Clear 60 15.3 28 -2 31 31 NE 6 9 30.18 1022 10 16 N/A
8:55 pm 20:55 Clear 57 13.8 31 -0.7 37 37 NNE 5 7 30.18 1022 10 16 N/A
9:15 pm 21:15 Clear 55 12.8 33 0.3 43 43 undefined N/A 30.18 1022 10 16 N/A
9:35 pm 21:35 Clear 55 12.5 37 2.6 51 51 undefined N/A 30.18 1022 10 16 N/A
9:55 pm 21:55 Clear 52 11 37 2.7 57 57 undefined N/A 30.18 1022 10 16 N/A
10:15 pm 22:15 Clear 55 12.5 37 2.9 52 52 undefined N/A 30.21 1023 10 16 N/A
10:35 pm 22:35 Clear 52 11.2 37 2.5 55 55 undefined N/A 30.21 1023 10 16 N/A
10:55 pm 22:55 Clear 55 12.5 33 0.5 44 44 undefined N/A 30.21 1023 10 16 N/A
11:15 pm 23:15 Clear 55 12.5 34 1.2 46 46 undefined N/A 30.21 1023 10 16 N/A
11:35 pm 23:35 Clear 55 12.5 37 2.5 51 51 undefined N/A 30.21 1023 10 16 N/A
11:55 pm 23:55 Clear 55 12.5 38 3.2 53 53 undefined N/A 30.21 1023 10 16 N/A

Powered by AerisWeather